Theta_e
316 315 312 311 317 317 326 328 328 331 340 336 330 333 331 342 347 345 345 347 352 352 354 354 354 356 359 360 360 359 357 357
311 309 316 317 318 323 326 327 331 339 333 339 341 337 337 345 345 343 347 348 353 352 354 354 357 358 359 360 360 359 357 356
310 311 317 323 324 327 326 328 330 337 333 336 344 347 339 343 342 340 345 346 348 352 356 356 356 356 358 358 359 359 356 355
307 312 319 324 328 330 326 330 334 337 334 335 345 340 337 341 340 343 343 345 347 354 354 357 357 357 357 357 358 357 356 354
310 312 317 322 329 327 325 329 330 339 332 336 339 338 338 340 340 342 342 344 346 347 352 355 357 357 356 357 356 355 354 353
311 311 313 322 328 330 331 331 341 344 332 329 337 337 336 339 340 340 342 342 343 346 346 348 351 354 354 354 354 354 353 352
309 311 317 327 325 332 340 336 335 337 340 339 339 336 334 336 337 337 342 340 342 342 343 343 344 351 354 354 353 353 353 355
314 316 318 324 326 329 330 331 332 336 339 341 338 335 332 333 334 334 336 336 340 341 342 342 345 350 349 348 348 348 348 352
313 317 319 323 326 328 328 326 332 334 335 337 336 336 334 332 336 336 335 337 338 346 348 343 346 348 347 347 347 349 356 358
311 314 315 316 326 327 325 331 337 339 338 337 335 334 332 330 332 331 333 335 338 343 347 347 344 345 345 347 347 349 351 354
312 313 314 317 318 326 328 334 329 338 337 335 335 334 333 332 331 332 332 335 338 344 350 358 356 352 354 352 351 350 351 352
311 311 313 312 318 321 329 335 332 336 334 334 333 332 333 333 332 334 335 336 338 341 349 347 356 357 354 352 352 351 350 348
309 309 311 313 310 317 334 339 337 335 335 335 334 333 334 334 335 336 338 338 341 344 348 354 356 356 356 352 348 349 345 346
307 309 310 315 308 317 333 336 335 335 336 335 335 334 335 335 337 340 339 344 346 344 347 349 351 355 352 350 349 345 343 341
305 311 309 314 310 319 325 333 332 333 335 335 336 336 337 336 338 340 342 343 345 348 343 346 348 350 347 345 344 342 342 336
305 310 311 311 312 318 322 329 331 332 333 334 334 335 338 338 339 340 341 342 344 344 343 343 345 345 341 343 340 338 331 329
306 311 312 312 312 316 325 327 329 330 330 331 334 338 339 337 338 338 340 341 342 340 342 342 340 338 336 334 332 328 325 326
305 307 307 310 312 316 324 326 329 330 330 330 331 334 336 336 336 337 337 338 339 338 339 340 340 340 338 332 329 325 322 323
302 305 307 306 304 309 320 325 328 327 327 330 331 333 333 333 333 334 334 335 336 337 337 338 337 333 328 325 324 322 319 318
303 301 296 306 296 306 309 316 325 325 327 329 332 334 332 330 329 330 331 335 335 333 334 337 335 331 330 325 321 323 320 318
Wind_Speed
10 14 5 1 18 21 32 13 14 17 18 9 13 19 16 19 24 20 18 17 14 16 14 15 14 13 10 11 13 12 12 11
11 20 10 15 10 28 18 6 10 21 16 12 13 18 19 20 22 20 21 18 15 17 15 15 13 11 11 12 13 12 11 10
18 25 21 24 39 36 20 11 11 21 16 11 3 21 20 21 18 19 21 17 16 16 15 14 13 12 11 11 11 12 9 9
18 12 8 26 31 15 28 24 21 21 18 10 14 19 19 18 18 24 19 17 15 14 15 13 13 11 10 10 10 9 8 7
24 18 8 9 7 7 31 30 8 24 15 13 18 18 17 18 14 20 21 17 14 14 13 14 12 11 10 9 10 8 7 5
21 18 6 20 2 8 12 13 12 17 9 15 20 19 17 19 16 15 20 18 16 14 13 12 11 12 10 9 8 8 6 6
22 24 6 4 8 9 19 25 11 4 18 26 25 21 18 19 18 12 13 14 16 16 14 14 14 11 10 10 9 8 8 10
23 24 8 6 6 10 8 14 15 20 26 27 24 21 19 19 18 15 16 16 14 14 13 15 13 12 9 10 8 8 9 8
24 26 17 7 7 12 13 11 17 21 24 25 23 19 18 17 17 16 17 11 13 12 8 11 9 9 6 7 7 6 3 1
26 29 27 16 6 15 32 12 25 18 20 23 22 19 18 16 17 19 17 13 14 13 8 8 7 8 8 6 5 5 6 5
21 24 26 12 15 20 27 17 26 10 19 21 19 19 18 17 15 14 15 13 15 13 7 1 2 2 1 3 2 7 4 4
19 24 19 18 17 19 2 15 20 24 21 19 20 18 14 15 13 11 10 11 11 13 7 6 3 4 2 3 4 3 6 7
18 21 19 16 22 18 24 28 22 20 19 19 18 17 15 13 11 9 9 10 10 10 10 4 4 4 2 3 4 5 7 5
18 20 18 16 21 17 18 20 21 19 20 20 18 17 15 14 12 9 10 8 8 8 10 5 6 3 3 4 4 5 5 5
20 20 20 19 20 16 15 20 19 18 17 18 18 16 14 16 13 12 10 9 6 6 11 6 5 3 5 5 4 4 4 6
15 20 21 18 20 18 21 19 20 19 16 16 18 19 18 18 15 12 12 10 7 7 10 8 4 4 5 3 4 4 7 6
20 14 20 20 20 19 17 18 20 22 20 19 17 16 16 15 15 14 12 12 10 11 10 7 2 5 6 6 5 6 6 5
13 19 17 13 20 18 21 21 20 22 24 23 19 21 16 15 15 14 12 13 10 11 10 8 6 5 2 5 5 7 6 5
18 18 19 18 20 16 17 23 21 5 6 9 17 23 21 18 15 14 13 11 13 9 10 7 6 6 7 8 5 5 5 5
19 17 14 18 15 17 18 19 23 22 27 32 37 21 21 22 18 16 13 8 10 11 10 7 6 6 8 5 6 5 6 6
Wind_Direction
243 249 60 205 248 265 269 127 143 109 75 69 109 123 133 125 117 129 128 121 127 133 128 128 129 124 121 112 103 100 103 101
258 261 177 196 272 246 228 150 130 95 93 88 119 129 128 131 126 137 119 125 127 135 132 131 131 129 119 114 112 109 108 106
263 263 181 214 185 244 178 134 121 113 112 103 95 108 141 129 143 134 117 128 135 138 132 131 131 125 115 110 110 113 113 108
270 284 33 215 195 94 67 309 112 107 120 107 121 136 144 140 152 124 127 133 138 137 134 131 133 128 120 114 111 115 115 112
265 273 263 296 153 179 148 201 164 137 113 136 147 139 151 140 137 119 130 134 138 141 144 130 133 135 135 128 124 128 131 141
275 279 296 306 270 153 90 33 92 126 149 156 153 152 152 136 130 153 135 144 151 148 154 157 152 148 145 146 146 152 166 190
263 269 246 134 239 160 115 145 170 160 147 148 142 153 158 147 144 159 135 156 157 159 160 169 155 159 162 168 174 189 201 223
261 269 351 329 260 150 158 145 136 88 116 136 148 164 158 160 147 152 153 172 146 170 165 173 155 151 182 180 192 198 198 185
263 269 303 167 233 15 203 174 150 126 133 143 153 160 161 178 150 155 169 167 169 131 167 169 146 160 186 176 196 199 187 168
265 281 294 261 135 86 292 80 61 130 147 150 163 164 167 169 163 165 166 168 153 149 185 187 183 168 186 182 178 168 180 152
254 269 275 293 284 178 210 104 127 199 167 158 165 172 173 168 163 152 162 159 155 140 172 223 334 156 223 140 133 123 135 117
257 263 268 270 268 264 122 70 162 167 160 168 169 176 163 141 130 131 149 145 147 145 156 175 235 109 109 59 85 71 59 45
264 259 260 262 261 253 154 179 139 158 166 170 167 169 131 134 132 154 131 160 123 145 147 190 159 86 87 102 151 86 81 47
263 242 243 246 258 235 160 146 156 170 179 171 166 142 148 139 146 140 135 118 159 160 129 77 109 146 124 80 75 88 100 83
243 259 222 230 252 266 217 167 161 175 186 172 153 150 157 155 157 147 130 148 174 133 144 131 114 150 89 73 90 86 106 90
235 230 216 222 223 238 253 178 173 175 185 187 173 170 166 157 154 153 147 148 160 110 108 110 149 119 122 160 103 95 64 64
305 299 180 210 230 222 170 187 195 178 186 190 189 179 162 161 157 160 162 156 161 127 128 117 125 180 154 159 113 92 88 77
294 299 302 261 224 226 177 195 208 195 180 187 183 184 177 176 162 168 168 153 174 149 151 169 190 186 169 129 104 93 84 70
277 278 279 275 273 273 197 196 210 113 344 330 195 182 179 187 176 174 176 177 165 162 152 193 121 105 81 85 99 121 145 123
258 259 264 267 264 232 241 224 198 195 197 184 205 186 175 176 173 169 172 187 157 143 157 195 140 143 140 155 171 154 111 99